CW6344 Weather Reports


time (UTC)temp
C
wind
direction
speed
KPH
gust
KPH
rain 1hr
cm
rain 24hr
cm
rain mn
cm
humidity
%
barometer
mb
20260505124528 18 225 1.6 9.7 0.00 0.00 0.00 66 1013.2
20260505123458 18 298 4.8 9.7 0.00 0.00 0.00 66 1013.0
20260505122458 18 186 1.6 4.8 0.00 0.00 0.00 65 1013.1
20260505121458 18 324 0.0 8.0 0.00 0.00 0.00 65 1013.1
20260505120458 18 259 0.0 6.4 0.00 0.00 0.00 66 1013.0
20260505115458 18 286 4.8 8.0 0.00 0.00 0.00 67 1012.9
20260505114458 17 257 1.6 8.0 0.00 0.00 0.00 66 1012.9
20260505113458 17 220 1.6 4.8 0.00 0.00 0.00 68 1012.8
20260505112458 17 195 0.0 4.8 0.00 0.00 0.00 68 1012.7
20260505111458 17 251 1.6 8.0 0.00 0.00 0.00 68 1012.7
20260505110528 17 279 3.2 4.8 0.00 0.00 0.00 69 1012.7
20260505101458 17 261 0.0 6.4 0.00 0.00 0.00 70 1012.4
20260505100458 16 246 3.2 3.2 0.00 0.00 0.00 70 1012.4
20260505094458 17 221 0.0 3.2 0.00 0.00 0.00 69 1012.3
20260505093458 17 240 1.6 3.2 0.00 0.00 0.00 69 1012.3
20260505092458 17 199 4.8 6.4 0.00 0.00 0.00 69 1012.4
20260505091458 17 239 1.6 4.8 0.00 0.00 0.00 69 1012.3
20260505090458 17 275 1.6 1.6 0.00 0.00 0.00 68 1012.1
20260505085458 17 194 1.6 4.8 0.00 0.00 0.00 68 1012.1
20260505084528 17 243 1.6 9.7 0.00 0.00 0.00 68 1012.0
20260505083458 17 294 3.2 4.8 0.00 0.00 0.00 68 1012.1
20260505082528 17 166 1.6 8.0 0.00 0.00 0.00 68 1012.0
20260505081458 17 195 1.6 12.9 0.00 0.00 0.00 67 1012.1
20260505080458 17 324 3.2 6.4 0.00 0.00 0.00 68 1012.1
20260505075458 17 130 1.6 4.8 0.00 0.00 0.00 68 1012.0
20260505074458 17 281 0.0 6.4 0.00 0.00 0.00 68 1012.0
20260505072528 17 209 1.6 4.8 0.00 0.00 0.00 68 1011.8
20260505071458 17 236 1.6 4.8 0.00 0.00 0.00 68 1011.8
20260505070458 17 257 1.6 3.2 0.00 0.00 0.00 68 1011.8
20260505065458 17 227 1.6 6.4 0.00 0.00 0.00 67 1011.8
20260505064528 17 207 3.2 6.4 0.00 0.00 0.00 67 1011.7
20260505063458 18 299 0.0 8.0 0.00 0.00 0.00 67 1011.8
20260505062458 18 205 0.0 9.7 0.00 0.00 0.00 66 1011.7
20260505061458 18 232 3.2 4.8 0.00 0.00 0.00 66 1011.7
20260505060458 18 219 9.7 9.7 0.00 0.00 0.00 66 1011.7
20260505055458 18 202 6.4 9.7 0.00 0.00 0.00 65 1011.7
20260505054458 18 169 0.0 14.5 0.00 0.00 0.00 64 1011.8
20260505053458 17 163 0.0 3.2 0.00 0.00 0.00 64 1011.8
20260505052458 17 142 0.0 3.2 0.00 0.00 0.00 63 1011.8
20260505051458 17 242 3.2 4.8 0.00 0.00 0.00 62 1011.7
20260505050458 17 266 0.0 3.2 0.00 0.00 0.00 62 1011.6
20260505041458 17 331 0.0 1.6 0.00 0.00 0.00 61 1011.6
20260505040458 17 343 0.0 0.0 0.00 0.00 0.00 59 1011.6
20260505035458 17 344 0.0 0.0 0.00 0.00 0.00 60 1011.5
20260505034458 17 277 0.0 0.0 0.00 0.00 0.00 60 1011.5
20260505032458 17 283 0.0 0.0 0.00 0.00 0.00 60 1011.5
20260505031458 17 283 0.0 0.0 0.00 0.00 0.00 60 1011.5
20260505030458 17 283 0.0 0.0 0.00 0.00 0.00 61 1011.5
20260505025458 17 283 0.0 0.0 0.00 0.00 0.00 59 1011.5
20260505024528 17 283 0.0 0.0 0.00 0.00 0.00 60 1011.5
20260505023458 17 283 0.0 0.0 0.00 0.00 0.00 60 1011.5
20260505022458 17 283 0.0 0.0 0.00 0.00 0.00 62 1011.5
20260505021458 17 283 0.0 0.0 0.00 0.00 0.00 61 1011.3
20260505020458 17 283 0.0 0.0 0.00 0.00 0.00 62 1011.4
20260505015458 17 283 0.0 0.0 0.00 0.00 0.00 61 1011.4
20260505014458 17 283 0.0 0.0 0.00 0.00 0.00 62 1011.3
20260505013458 17 283 0.0 0.0 0.00 0.00 0.00 60 1011.3
20260505012528 18 283 0.0 0.0 0.00 0.00 0.00 60 1011.3
20260505011458 18 283 0.0 0.0 0.00 0.00 0.00 58 1011.2
20260505010458 18 283 0.0 0.0 0.00 0.00 0.00 56 1011.2
20260505005458 19 283 0.0 1.6 0.00 0.00 0.00 54 1011.0
20260505004458 18 285 0.0 0.0 0.00 0.00 0.00 54 1010.9
20260505003458 18 285 0.0 0.0 0.00 0.00 0.00 52 1011.0
20260505002558 19 285 0.0 0.0 0.00 0.00 0.00 50 1011.0
20260505001458 20 285 0.0 0.0 0.00 0.00 0.00 48 1011.0
20260505000528 20 285 0.0 0.0 0.00 0.00 0.00 47 1010.9
20260504235458 21 285 0.0 0.0 0.00 0.00 0.00 44 1010.7
20260504234459 21 285 0.0 0.0 0.00 0.00 0.00 43 1010.7
20260504232528 22 285 0.0 0.0 0.00 0.00 0.00 40 1010.7
20260504231458 22 76 0.0 0.0 0.00 0.00 0.00 38 1010.6
20260504230529 23 275 1.6 3.2 0.00 0.00 0.00 37 1010.6
20260504225459 23 267 0.0 3.2 0.00 0.00 0.00 37 1010.6
20260504224458 23 218 1.6 4.8 0.00 0.00 0.00 35 1010.6
20260504223458 23 167 1.6 4.8 0.00 0.00 0.00 35 1010.7
20260504222459 23 267 3.2 3.2 0.00 0.00 0.00 35 1010.8
20260504221458 23 197 0.0 4.8 0.00 0.00 0.00 37 1010.8
20260504220458 23 344 1.6 1.6 0.00 0.00 0.00 38 1010.8
20260504215458 24 232 0.0 6.4 0.00 0.00 0.00 33 1010.9
20260504214458 24 211 1.6 4.8 0.00 0.00 0.00 35 1010.9
20260504213459 24 213 0.0 6.4 0.00 0.00 0.00 38 1010.8
20260504212459 24 296 0.0 4.8 0.00 0.00 0.00 34 1010.9
20260504211458 24 180 1.6 3.2 0.00 0.00 0.00 35 1010.9
20260504210529 24 292 3.2 4.8 0.00 0.00 0.00 34 1010.9
20260504205458 24 16 1.6 1.6 0.00 0.00 0.00 36 1010.7
20260504204529 25 215 0.0 6.4 0.00 0.00 0.00 32 1010.8
20260504203459 25 275 1.6 3.2 0.00 0.00 0.00 37 1010.7
20260504202459 25 171 0.0 3.2 0.00 0.00 0.00 33 1010.9
20260504200459 25 289 0.0 4.8 0.00 0.00 0.00 37 1011.1
20260504195458 25 12 3.2 3.2 0.00 0.00 0.00 37 1011.1
20260504194458 25 86 1.6 4.8 0.00 0.00 0.00 31 1011.2
20260504193459 24 340 1.6 4.8 0.00 0.00 0.00 37 1011.4
20260504192459 24 101 1.6 6.4 0.00 0.00 0.00 33 1011.7
20260504191459 24 231 0.0 8.0 0.00 0.00 0.00 33 1011.7
20260504190459 25 160 1.6 6.4 0.00 0.00 0.00 31 1011.8
20260504185458 24 178 4.8 4.8 0.00 0.00 0.00 38 1011.9
20260504184459 24 250 1.6 12.9 0.00 0.00 0.00 33 1012.2
20260504183459 24 208 4.8 6.4 0.00 0.00 0.00 35 1012.3
20260504182459 23 245 3.2 6.4 0.00 0.00 0.00 32 1012.4
20260504181459 24 136 0.0 4.8 0.00 0.00 0.00 33 1012.5
20260504180459 23 317 1.6 8.0 0.00 0.00 0.00 32 1012.6
20260504175459 23 340 1.6 4.8 0.00 0.00 0.00 45 1012.6
20260504174459 23 244 6.4 8.0 0.00 0.00 0.00 40 1012.8
20260504173459 23 236 3.2 4.8 0.00 0.00 0.00 41 1012.9
20260504172559 23 175 3.2 8.0 0.00 0.00 0.00 35 1013.0
20260504171459 22 152 1.6 6.4 0.00 0.00 0.00 35 1013.2
20260504170459 22 198 0.0 9.7 0.00 0.00 0.00 39 1013.3
20260504150459 19 207 4.8 4.8 0.00 0.00 0.00 40 1014.4
20260504140459 17 233 0.0 3.2 0.00 0.00 0.00 52 1014.4